| time (UTC) | temp F | wind direction | speed knots | gust knots | rain 1hr in | rain 24hr in | rain mn in | humidity % | barometer mb |
| 20260507085115 | 65 | 215 | 0.9 | 1.7 | 0.00 | 0.00 | 0.00 | 92 | 1011.9 |
| 20260507081233 | 67 | 225 | 1.7 | 7.0 | 0.00 | 0.00 | 0.00 | 100 | 1011.5 |
| 20260507062747 | 56 | 182 | 0.0 | 0.0 | 0.00 | 0.00 | 0.00 | 100 | 1011.2 |
| 20260507062240 | 55 | 217 | 0.0 | 0.9 | 0.00 | 0.00 | 0.00 | 100 | 1011.1 |
| 20260507061733 | 55 | 185 | 0.0 | 0.9 | 0.00 | 0.00 | 0.00 | 100 | 1011.1 |
| 20260507061225 | 55 | 173 | 0.9 | 3.5 | 0.00 | 0.00 | 0.00 | 100 | 1011.2 |
| 20260507060718 | 55 | 227 | 0.0 | 1.7 | 0.00 | 0.00 | 0.00 | 100 | 1011.1 |
| 20260507060211 | 54 | 213 | 0.0 | 0.9 | 0.00 | 0.00 | 0.00 | 100 | 1011.1 |
| 20260507055704 | 53 | 204 | 0.0 | 0.0 | 0.00 | 0.00 | 0.00 | 100 | 1011.0 |
| 20260507055157 | 52 | 187 | 0.0 | 1.7 | 0.00 | 0.00 | 0.00 | 100 | 1010.9 |
| 20260507054650 | 51 | 216 | 0.0 | 0.0 | 0.00 | 0.00 | 0.00 | 100 | 1010.9 |
| 20260507054143 | 51 | 148 | 0.0 | 0.9 | 0.00 | 0.00 | 0.00 | 100 | 1010.8 |
| 20260507053636 | 50 | 200 | 0.0 | 0.0 | 0.00 | 0.00 | 0.00 | 100 | 1010.7 |
| 20260507053129 | 50 | 193 | 0.0 | 0.0 | 0.00 | 0.00 | 0.00 | 100 | 1010.7 |
| 20260507052622 | 49 | 215 | 0.0 | 0.0 | 0.00 | 0.00 | 0.00 | 100 | 1010.7 |
| 20260507052115 | 49 | 193 | 0.0 | 0.0 | 0.00 | 0.00 | 0.00 | 100 | 1010.6 |
| 20260507051608 | 48 | 184 | 0.0 | 0.0 | 0.00 | 0.00 | 0.00 | 100 | 1010.5 |
| 20260507051101 | 48 | 194 | 0.0 | 0.0 | 0.00 | 0.00 | 0.00 | 100 | 1010.5 |
| 20260507050554 | 48 | 181 | 0.0 | 0.0 | 0.00 | 0.00 | 0.00 | 100 | 1010.4 |
| 20260507050047 | 48 | 193 | 0.0 | 0.0 | 0.00 | 0.00 | 0.00 | 100 | 1010.4 |
| 20260507045540 | 47 | 180 | 0.0 | 0.0 | 0.00 | 0.00 | 0.00 | 100 | 1010.3 |
| 20260507045033 | 47 | 212 | 0.0 | 0.0 | 0.00 | 0.00 | 0.00 | 100 | 1010.2 |
| 20260507044526 | 47 | 225 | 0.0 | 0.0 | 0.00 | 0.00 | 0.00 | 100 | 1010.0 |
| 20260507044019 | 47 | 225 | 0.0 | 0.0 | 0.00 | 0.00 | 0.00 | 100 | 1010.0 |
| 20260507043512 | 46 | 225 | 0.0 | 0.0 | 0.00 | 0.00 | 0.00 | 100 | 1009.9 |
| 20260507043005 | 46 | 225 | 0.0 | 0.0 | 0.00 | 0.00 | 0.00 | 100 | 1009.8 |
| 20260507042459 | 45 | 210 | 0.0 | 0.0 | 0.00 | 0.00 | 0.00 | 100 | 1009.8 |
| 20260507041952 | 45 | 209 | 0.0 | 0.0 | 0.00 | 0.00 | 0.00 | 100 | 1009.7 |
| 20260507041445 | 45 | 180 | 0.0 | 0.0 | 0.00 | 0.00 | 0.00 | 100 | 1009.7 |
| 20260507040938 | 45 | 180 | 0.0 | 0.0 | 0.00 | 0.00 | 0.00 | 100 | 1009.6 |
| 20260507040431 | 45 | 180 | 0.0 | 0.0 | 0.00 | 0.00 | 0.00 | 100 | 1009.6 |
| 20260507035924 | 45 | 193 | 0.0 | 0.0 | 0.00 | 0.00 | 0.00 | 100 | 1009.5 |
| 20260507035417 | 45 | 177 | 0.0 | 0.0 | 0.00 | 0.00 | 0.00 | 100 | 1009.5 |
| 20260507034911 | 45 | 229 | 0.0 | 0.0 | 0.00 | 0.00 | 0.00 | 100 | 1009.3 |
| 20260507034404 | 45 | 230 | 0.0 | 0.0 | 0.00 | 0.00 | 0.00 | 100 | 1009.3 |
| 20260507033857 | 45 | 217 | 0.0 | 0.0 | 0.00 | 0.00 | 0.00 | 100 | 1009.3 |
| 20260507033350 | 45 | 228 | 0.0 | 0.0 | 0.00 | 0.00 | 0.00 | 100 | 1009.2 |
| 20260507032843 | 45 | 173 | 0.0 | 0.0 | 0.00 | 0.00 | 0.00 | 100 | 1009.2 |
| 20260507032336 | 45 | 135 | 0.0 | 0.0 | 0.00 | 0.00 | 0.00 | 100 | 1009.3 |
| 20260507031829 | 45 | 139 | 0.0 | 0.0 | 0.00 | 0.00 | 0.00 | 100 | 1009.3 |
| 20260507031322 | 45 | 218 | 0.0 | 0.0 | 0.00 | 0.00 | 0.00 | 100 | 1009.2 |
| 20260507030816 | 45 | 266 | 0.0 | 0.0 | 0.00 | 0.00 | 0.00 | 100 | 1009.2 |
| 20260507030309 | 45 | 180 | 0.0 | 0.0 | 0.00 | 0.00 | 0.00 | 100 | 1009.2 |
| 20260507025802 | 45 | 180 | 0.0 | 0.0 | 0.00 | 0.00 | 0.00 | 100 | 1009.1 |
| 20260507025255 | 45 | 180 | 0.0 | 0.0 | 0.00 | 0.00 | 0.00 | 100 | 1009.0 |
| 20260507024748 | 45 | 180 | 0.0 | 0.0 | 0.00 | 0.00 | 0.00 | 100 | 1009.0 |
| 20260507024241 | 46 | 180 | 0.0 | 0.0 | 0.00 | 0.00 | 0.00 | 100 | 1009.0 |
| 20260507023734 | 46 | 180 | 0.0 | 0.0 | 0.00 | 0.00 | 0.00 | 100 | 1008.9 |
| 20260507023227 | 46 | 180 | 0.0 | 0.0 | 0.00 | 0.00 | 0.00 | 100 | 1008.9 |
| 20260507022721 | 46 | 183 | 0.0 | 0.0 | 0.00 | 0.00 | 0.00 | 100 | 1008.9 |
| 20260507022214 | 46 | 225 | 0.0 | 0.0 | 0.00 | 0.00 | 0.00 | 100 | 1008.8 |
| 20260507021707 | 46 | 180 | 0.0 | 0.0 | 0.00 | 0.00 | 0.00 | 100 | 1008.7 |
| 20260507021200 | 46 | 180 | 0.0 | 0.0 | 0.00 | 0.00 | 0.00 | 100 | 1008.7 |
| 20260507020653 | 46 | 203 | 0.0 | 0.0 | 0.00 | 0.00 | 0.00 | 100 | 1008.7 |
| 20260507020146 | 46 | 225 | 0.0 | 0.0 | 0.00 | 0.00 | 0.00 | 100 | 1008.8 |
| 20260507015639 | 47 | 222 | 0.0 | 0.0 | 0.00 | 0.00 | 0.00 | 100 | 1008.8 |
| 20260507015132 | 47 | 222 | 0.0 | 0.0 | 0.00 | 0.00 | 0.00 | 100 | 1008.8 |
| 20260507014625 | 47 | 270 | 0.0 | 0.0 | 0.00 | 0.00 | 0.00 | 100 | 1008.8 |
| 20260507014118 | 47 | 270 | 0.0 | 0.0 | 0.00 | 0.00 | 0.00 | 100 | 1008.7 |
| 20260507013611 | 47 | 270 | 0.0 | 0.0 | 0.00 | 0.00 | 0.00 | 100 | 1008.6 |
| 20260507013105 | 47 | 270 | 0.0 | 0.0 | 0.00 | 0.00 | 0.00 | 100 | 1008.7 |
| 20260507012558 | 48 | 270 | 0.0 | 0.0 | 0.00 | 0.00 | 0.00 | 100 | 1008.7 |
| 20260507012051 | 48 | 270 | 0.0 | 0.0 | 0.00 | 0.00 | 0.00 | 100 | 1008.7 |
| 20260507011544 | 48 | 244 | 0.0 | 0.0 | 0.00 | 0.00 | 0.00 | 100 | 1008.7 |
| 20260507011037 | 48 | 225 | 0.0 | 0.0 | 0.00 | 0.00 | 0.00 | 100 | 1008.8 |
| 20260507010530 | 48 | 225 | 0.0 | 0.0 | 0.00 | 0.00 | 0.00 | 100 | 1008.7 |
| 20260507010023 | 48 | 225 | 0.0 | 0.0 | 0.00 | 0.00 | 0.00 | 100 | 1008.5 |
| 20260507005516 | 48 | 193 | 0.0 | 0.0 | 0.00 | 0.00 | 0.00 | 100 | 1008.4 |
| 20260507005009 | 48 | 170 | 0.0 | 0.0 | 0.00 | 0.00 | 0.00 | 100 | 1008.3 |
| 20260507004502 | 48 | 180 | 0.0 | 0.0 | 0.00 | 0.00 | 0.00 | 100 | 1008.3 |
| 20260507003955 | 49 | 97 | 0.0 | 0.0 | 0.00 | 0.00 | 0.00 | 100 | 1008.1 |
| 20260507003448 | 49 | 97 | 0.0 | 0.0 | 0.00 | 0.00 | 0.00 | 100 | 1008.2 |
| 20260507002941 | 49 | 187 | 0.0 | 0.0 | 0.00 | 0.00 | 0.00 | 100 | 1008.2 |
| 20260507002434 | 50 | 154 | 0.0 | 0.0 | 0.00 | 0.00 | 0.00 | 100 | 1008.2 |
| 20260507001927 | 50 | 163 | 0.0 | 0.0 | 0.00 | 0.00 | 0.00 | 100 | 1008.2 |
| 20260507001420 | 50 | 171 | 0.0 | 3.5 | 0.00 | 0.00 | 0.00 | 100 | 1008.3 |
| 20260507000913 | 50 | 176 | 0.0 | 0.0 | 0.00 | 0.00 | 0.00 | 100 | 1008.4 |
| 20260507000406 | 50 | 165 | 0.0 | 2.6 | 0.00 | 0.00 | 0.00 | 100 | 1008.3 |
| 20260506235859 | 50 | 223 | 0.9 | 2.6 | 0.00 | 0.00 | 0.00 | 100 | 1008.3 |
| 20260506235352 | 50 | 144 | 0.0 | 0.0 | 0.00 | 0.00 | 0.00 | 100 | 1008.2 |
| 20260506234845 | 50 | 168 | 0.0 | 0.0 | 0.00 | 0.00 | 0.00 | 100 | 1008.1 |
| 20260506234338 | 50 | 180 | 0.0 | 0.0 | 0.00 | 0.00 | 0.00 | 100 | 1008.1 |
| 20260506233831 | 50 | 180 | 0.0 | 0.0 | 0.00 | 0.00 | 0.00 | 100 | 1008.1 |
| 20260506233324 | 50 | 180 | 0.0 | 0.0 | 0.00 | 0.00 | 0.00 | 100 | 1008.0 |
| 20260506232817 | 50 | 180 | 0.0 | 0.0 | 0.00 | 0.00 | 0.00 | 100 | 1008.0 |
| 20260506232310 | 50 | 180 | 0.0 | 0.0 | 0.00 | 0.00 | 0.00 | 100 | 1008.0 |
| 20260506231803 | 50 | 180 | 0.0 | 0.0 | 0.00 | 0.00 | 0.00 | 100 | 1007.9 |
| 20260506231256 | 50 | 180 | 0.0 | 0.0 | 0.00 | 0.00 | 0.00 | 100 | 1007.9 |
| 20260506230749 | 51 | 180 | 0.0 | 0.0 | 0.00 | 0.00 | 0.00 | 100 | 1007.9 |
| 20260506230241 | 51 | 204 | 0.0 | 0.0 | 0.00 | 0.00 | 0.00 | 100 | 1007.8 |
| 20260506225734 | 51 | 180 | 0.0 | 0.0 | 0.00 | 0.00 | 0.00 | 100 | 1007.7 |
| 20260506225227 | 51 | 180 | 0.0 | 0.0 | 0.00 | 0.00 | 0.00 | 100 | 1007.6 |
| 20260506224721 | 51 | 218 | 0.0 | 0.0 | 0.00 | 0.00 | 0.00 | 100 | 1007.5 |
| 20260506224213 | 51 | 225 | 0.0 | 0.0 | 0.00 | 0.00 | 0.00 | 100 | 1007.5 |
| 20260506223706 | 51 | 225 | 0.0 | 0.0 | 0.00 | 0.00 | 0.00 | 100 | 1007.5 |
| 20260506223159 | 51 | 222 | 0.0 | 0.0 | 0.00 | 0.00 | 0.00 | 100 | 1007.4 |
| 20260506222652 | 52 | 228 | 0.0 | 0.0 | 0.00 | 0.00 | 0.00 | 100 | 1007.4 |
| 20260506222145 | 52 | 300 | 0.0 | 0.0 | 0.00 | 0.00 | 0.00 | 100 | 1007.3 |
| 20260506221638 | 52 | 225 | 0.0 | 0.0 | 0.00 | 0.00 | 0.00 | 100 | 1007.4 |
| 20260506221131 | 52 | 220 | 0.0 | 0.0 | 0.00 | 0.00 | 0.00 | 100 | 1007.4 |
| 20260506220624 | 52 | 174 | 0.0 | 0.0 | 0.00 | 0.00 | 0.00 | 100 | 1007.3 |
| 20260506220117 | 52 | 229 | 0.0 | 0.0 | 0.00 | 0.00 | 0.00 | 100 | 1007.5 |
| 20260506215610 | 52 | 199 | 0.0 | 0.0 | 0.00 | 0.00 | 0.00 | 100 | 1007.4 |
| 20260506215102 | 51 | 237 | 0.9 | 1.7 | 0.00 | 0.00 | 0.00 | 100 | 1007.2 |
| 20260506214555 | 51 | 225 | 0.0 | 0.0 | 0.00 | 0.00 | 0.00 | 100 | 1007.1 |
| 20260506214048 | 52 | 225 | 0.0 | 0.0 | 0.00 | 0.00 | 0.00 | 100 | 1006.9 |
| 20260506213541 | 52 | 225 | 0.0 | 0.0 | 0.00 | 0.00 | 0.00 | 100 | 1006.6 |
| 20260506213034 | 52 | 215 | 0.0 | 0.0 | 0.00 | 0.00 | 0.00 | 100 | 1006.5 |
| 20260506212527 | 52 | 180 | 0.0 | 0.0 | 0.00 | 0.00 | 0.00 | 100 | 1006.5 |
| 20260506212020 | 52 | 180 | 0.0 | 0.0 | 0.00 | 0.00 | 0.00 | 100 | 1006.5 |
| 20260506211513 | 52 | 207 | 0.0 | 0.0 | 0.00 | 0.00 | 0.00 | 100 | 1006.4 |
| 20260506211006 | 52 | 198 | 0.0 | 0.0 | 0.00 | 0.00 | 0.00 | 100 | 1006.4 |
| 20260506210459 | 52 | 296 | 0.9 | 4.3 | 0.00 | 0.00 | 0.00 | 100 | 1006.4 |
| 20260506205952 | 52 | 225 | 0.0 | 0.0 | 0.00 | 0.00 | 0.00 | 100 | 1006.5 |
| 20260506205445 | 52 | 225 | 0.0 | 0.0 | 0.00 | 0.00 | 0.00 | 100 | 1006.4 |
| 20260506204937 | 52 | 316 | 0.0 | 0.0 | 0.00 | 0.00 | 0.00 | 100 | 1005.8 |
| 20260506204430 | 52 | 310 | 0.0 | 0.0 | 0.00 | 0.00 | 0.00 | 100 | 1005.5 |
| 20260506203923 | 52 | 182 | 0.0 | 0.0 | 0.00 | 0.00 | 0.00 | 100 | 1005.9 |
| 20260506203416 | 53 | 228 | 0.0 | 0.0 | 0.00 | 0.00 | 0.00 | 100 | 1006.0 |
| 20260506202909 | 53 | 341 | 0.0 | 0.0 | 0.00 | 0.00 | 0.00 | 100 | 1006.0 |
| 20260506202402 | 53 | 236 | 0.0 | 0.0 | 0.00 | 0.00 | 0.00 | 100 | 1006.0 |
| 20260506155327 | 68 | 139 | 0.9 | 6.1 | 0.00 | 0.00 | 0.00 | 68 | 1003.5 |
| 20260506154801 | 70 | 29 | 0.9 | 1.7 | 0.00 | 0.00 | 0.00 | 64 | 1003.5 |
| 20260506154236 | 72 | 160 | 0.0 | 0.0 | 0.00 | 0.00 | 0.00 | 62 | 1003.4 |
| 20260506153728 | 73 | 162 | 0.9 | 4.3 | 0.00 | 0.00 | 0.00 | 61 | 1003.5 |
| 20260506153220 | 74 | 85 | 0.0 | 0.0 | 0.00 | 0.00 | 0.00 | 62 | 1003.7 |
| 20260506152712 | 74 | 147 | 0.0 | 0.0 | 0.00 | 0.00 | 0.00 | 59 | 1003.6 |
| 20260506152146 | 76 | 157 | 0.0 | 0.0 | 0.00 | 0.00 | 0.00 | 60 | 1003.6 |
| 20260506151620 | 78 | 115 | 0.0 | 0.0 | 0.00 | 0.00 | 0.00 | 52 | 1003.6 |
| 20260506151054 | 80 | 187 | 0.0 | 1.7 | 0.00 | 0.00 | 0.00 | 44 | 1003.5 |
| 20260506150546 | 81 | 102 | 0.0 | 0.0 | 0.00 | 0.00 | 0.00 | 51 | 1003.5 |
| 20260506150037 | 81 | 147 | 0.9 | 6.1 | 0.00 | 0.00 | 0.00 | 50 | 1003.6 |
| 20260506145511 | 81 | 131 | 0.9 | 2.6 | 0.00 | 0.00 | 0.00 | 46 | 1003.6 |
| 20260506145003 | 81 | 118 | 0.9 | 2.6 | 0.00 | 0.00 | 0.00 | 43 | 1003.6 |
| 20260506144454 | 79 | 111 | 0.9 | 4.3 | 0.00 | 0.00 | 0.00 | 52 | 1003.7 |
| 20260506143946 | 76 | 140 | 0.9 | 3.5 | 0.00 | 0.00 | 0.00 | 56 | 1003.9 |
| 20260506143438 | 74 | 122 | 0.9 | 2.6 | 0.00 | 0.00 | 0.00 | 51 | 1004.0 |
| 20260506142930 | 75 | 144 | 0.9 | 3.5 | 0.00 | 0.00 | 0.00 | 50 | 1004.1 |
| 20260506142422 | 77 | 171 | 1.7 | 7.0 | 0.00 | 0.00 | 0.00 | 51 | 1004.3 |
| 20260506141914 | 79 | 163 | 0.0 | 1.7 | 0.00 | 0.00 | 0.00 | 51 | 1004.2 |
| 20260506141405 | 81 | 148 | 0.9 | 3.5 | 0.00 | 0.00 | 0.00 | 44 | 1004.2 |
| 20260506140857 | 81 | 175 | 0.0 | 0.0 | 0.00 | 0.00 | 0.00 | 58 | 1004.2 |
| 20260506140348 | 80 | 173 | 0.9 | 4.3 | 0.00 | 0.00 | 0.00 | 49 | 1004.2 |
| 20260506135840 | 80 | 164 | 0.9 | 3.5 | 0.00 | 0.00 | 0.00 | 45 | 1004.2 |
| 20260506135332 | 78 | 188 | 1.7 | 7.0 | 0.00 | 0.00 | 0.00 | 46 | 1004.3 |
| 20260506134823 | 78 | 164 | 1.7 | 7.0 | 0.00 | 0.00 | 0.00 | 41 | 1004.4 |
| 20260506134315 | 81 | 110 | 0.9 | 1.7 | 0.00 | 0.00 | 0.00 | 48 | 1004.4 |
| 20260506133807 | 83 | 110 | 0.0 | 0.0 | 0.00 | 0.00 | 0.00 | 58 | 1004.5 |
| 20260506133258 | 82 | 168 | 0.9 | 5.2 | 0.00 | 0.00 | 0.00 | 55 | 1004.5 |
| 20260506132750 | 81 | 149 | 0.9 | 4.3 | 0.00 | 0.00 | 0.00 | 46 | 1004.5 |
| 20260506132242 | 79 | 131 | 0.9 | 3.5 | 0.00 | 0.00 | 0.00 | 49 | 1004.6 |
| 20260506131733 | 78 | 170 | 0.9 | 5.2 | 0.00 | 0.00 | 0.00 | 48 | 1004.6 |
| 20260506131225 | 79 | 115 | 0.9 | 6.1 | 0.00 | 0.00 | 0.00 | 54 | 1004.7 |
| 20260506130717 | 79 | 103 | 0.9 | 2.6 | 0.00 | 0.00 | 0.00 | 52 | 1004.8 |
| 20260506130208 | 81 | 142 | 0.0 | 0.9 | 0.00 | 0.00 | 0.00 | 52 | 1004.9 |
| 20260506125700 | 83 | 109 | 0.0 | 1.7 | 0.00 | 0.00 | 0.00 | 53 | 1004.9 |
| 20260506125151 | 81 | 99 | 0.9 | 6.1 | 0.00 | 0.00 | 0.00 | 48 | 1005.0 |
| 20260506124625 | 83 | 92 | 1.7 | 7.0 | 0.00 | 0.00 | 0.00 | 47 | 1005.1 |
| 20260506124059 | 84 | 152 | 1.7 | 10.4 | 0.00 | 0.00 | 0.00 | 47 | 1005.1 |
| 20260506123550 | 85 | 121 | 1.7 | 3.5 | 0.00 | 0.00 | 0.00 | 43 | 1005.2 |
| 20260506123042 | 87 | 78 | 0.9 | 5.2 | 0.00 | 0.00 | 0.00 | 55 | 1005.2 |
| 20260506122533 | 86 | 120 | 0.9 | 3.5 | 0.00 | 0.00 | 0.00 | 52 | 1005.3 |
| 20260506122007 | 84 | 128 | 0.9 | 1.7 | 0.00 | 0.00 | 0.00 | 53 | 1005.5 |
| 20260506121441 | 81 | 128 | 0.9 | 4.3 | 0.00 | 0.00 | 0.00 | 57 | 1005.6 |
| 20260506120915 | 82 | 92 | 0.0 | 1.7 | 0.00 | 0.00 | 0.00 | 56 | 1005.7 |
| 20260506120349 | 83 | 146 | 1.7 | 6.1 | 0.00 | 0.00 | 0.00 | 49 | 1005.8 |
| 20260506115823 | 82 | 126 | 0.9 | 5.2 | 0.00 | 0.00 | 0.00 | 53 | 1005.9 |
| 20260506115257 | 83 | 109 | 0.9 | 2.6 | 0.00 | 0.00 | 0.00 | 68 | 1005.9 |
| 20260506114748 | 83 | 132 | 0.9 | 4.3 | 0.00 | 0.00 | 0.00 | 65 | 1006.1 |
| 20260506114222 | 84 | 110 | 0.0 | 0.0 | 0.00 | 0.00 | 0.00 | 71 | 1006.2 |
| 20260506113656 | 84 | 103 | 0.9 | 4.3 | 0.00 | 0.00 | 0.00 | 70 | 1006.2 |
| 20260506113147 | 84 | 140 | 0.0 | 1.7 | 0.00 | 0.00 | 0.00 | 79 | 1006.3 |
| 20260506112621 | 84 | 102 | 0.0 | 2.6 | 0.00 | 0.00 | 0.00 | 73 | 1006.3 |
| 20260506112055 | 84 | 136 | 0.9 | 1.7 | 0.00 | 0.00 | 0.00 | 78 | 1006.4 |
| 20260506111529 | 82 | 117 | 0.9 | 1.7 | 0.00 | 0.00 | 0.00 | 68 | 1006.6 |
| 20260506111003 | 81 | 179 | 0.0 | 1.7 | 0.00 | 0.00 | 0.00 | 77 | 1006.7 |
| 20260506110437 | 79 | 151 | 0.9 | 3.5 | 0.00 | 0.00 | 0.00 | 55 | 1006.7 |
| 20260506105911 | 80 | 166 | 0.0 | 1.7 | 0.00 | 0.00 | 0.00 | 77 | 1006.7 |
| 20260506105345 | 80 | 140 | 0.0 | 0.9 | 0.00 | 0.00 | 0.00 | 59 | 1006.8 |
| 20260506104819 | 80 | 142 | 0.9 | 3.5 | 0.00 | 0.00 | 0.00 | 83 | 1006.9 |
| 20260506104253 | 82 | 132 | 0.9 | 3.5 | 0.00 | 0.00 | 0.00 | 79 | 1006.9 |
| 20260506103727 | 82 | 95 | 0.9 | 3.5 | 0.00 | 0.00 | 0.00 | 80 | 1006.9 |
| 20260506103201 | 81 | 123 | 0.9 | 2.6 | 0.00 | 0.00 | 0.00 | 69 | 1007.0 |
| 20260506102635 | 81 | 134 | 0.0 | 0.9 | 0.00 | 0.00 | 0.00 | 87 | 1007.1 |
| 20260506102109 | 80 | 128 | 0.9 | 1.7 | 0.00 | 0.00 | 0.00 | 86 | 1007.0 |
| 20260506101543 | 80 | 143 | 0.0 | 0.9 | 0.00 | 0.00 | 0.00 | 93 | 1007.1 |
| 20260506101018 | 79 | 112 | 0.9 | 2.6 | 0.00 | 0.00 | 0.00 | 77 | 1007.1 |
| 20260506100452 | 79 | 134 | 0.9 | 2.6 | 0.00 | 0.00 | 0.00 | 89 | 1007.2 |
| 20260506095926 | 78 | 126 | 0.9 | 3.5 | 0.00 | 0.00 | 0.00 | 93 | 1007.2 |
| 20260506095400 | 78 | 102 | 0.9 | 3.5 | 0.00 | 0.00 | 0.00 | 92 | 1007.3 |
| 20260506094835 | 78 | 128 | 0.9 | 4.3 | 0.00 | 0.00 | 0.00 | 98 | 1007.3 |
| 20260506094309 | 78 | 172 | 0.9 | 1.7 | 0.00 | 0.00 | 0.00 | 94 | 1007.3 |
| 20260506093743 | 77 | 190 | 0.9 | 2.6 | 0.00 | 0.00 | 0.00 | 76 | 1007.3 |
| 20260506093217 | 77 | 143 | 0.9 | 2.6 | 0.00 | 0.00 | 0.00 | 91 | 1007.3 |
| 20260506092652 | 76 | 156 | 0.0 | 1.7 | 0.00 | 0.00 | 0.00 | 100 | 1007.3 |
| 20260506092126 | 76 | 143 | 1.7 | 5.2 | 0.00 | 0.00 | 0.00 | 100 | 1007.3 |
| 20260506091600 | 75 | 157 | 0.9 | 3.5 | 0.00 | 0.00 | 0.00 | 98 | 1007.3 |
| 20260506091035 | 74 | 111 | 1.7 | 6.1 | 0.00 | 0.00 | 0.00 | 100 | 1007.3 |
| 20260506090509 | 75 | 93 | 0.0 | 3.5 | 0.00 | 0.00 | 0.00 | 98 | 1007.3 |